DW0602 Weather Reports


Display with metric or nautical units.
time (UTC)temp
F
wind
direction
speed
MPH
gust
MPH
rain 1hr
in
rain 24hr
in
rain mn
in
humidity
%
barometer
mb
20260510174516 54 128 3.0 9.0 0.00 0.06 0.06 67 1026.4
20260510174424 54 109 3.0 8.0 0.00 0.06 0.06 67 1026.0
20260510173921 54 231 4.0 9.0 0.00 0.06 0.06 67 1026.0
20260510173420 54 122 4.0 9.0 0.00 0.06 0.06 68 1026.0
20260510173017 53 71 3.0 9.0 0.00 0.06 0.06 71 1026.5
20260510172919 53 188 3.0 7.0 0.00 0.06 0.06 72 1026.0
20260510171522 52 137 2.0 9.0 0.00 0.06 0.06 67 1026.6
20260510171419 53 138 3.0 8.0 0.00 0.06 0.06 67 1026.0
20260510170918 53 109 5.0 9.0 0.00 0.06 0.06 71 1025.9
20260510170418 53 97 4.0 9.0 0.00 0.06 0.06 74 1025.9
20260510170009 53 170 4.0 10.0 0.00 0.06 0.06 69 1026.3
20260510165918 53 150 3.0 8.0 0.00 0.06 0.06 72 1025.9
20260510165420 52 141 3.0 8.0 0.00 0.06 0.06 74 1025.8
20260510164919 51 187 3.0 9.0 0.00 0.06 0.06 72 1025.9
20260510164514 51 209 3.0 11.0 0.00 0.06 0.06 72 1026.4
20260510163917 53 128 3.0 8.0 0.00 0.06 0.06 74 1026.0
20260510163418 52 210 3.0 9.0 0.00 0.06 0.06 76 1025.9
20260510163018 51 161 3.0 9.0 0.00 0.06 0.06 78 1026.4
20260510162919 51 150 3.0 9.0 0.00 0.06 0.06 78 1025.9
20260510161913 50 180 3.0 7.0 0.00 0.06 0.06 80 1025.9
20260510161521 50 137 4.0 8.0 0.00 0.06 0.06 80 1026.3
20260510161414 50 101 3.0 6.0 0.00 0.06 0.06 82 1025.9
20260510160916 49 94 2.0 6.0 0.00 0.06 0.06 88 1025.9
20260510160414 47 192 2.0 6.0 0.00 0.06 0.06 84 1025.9
20260510160032 46 124 2.0 7.0 0.00 0.06 0.06 83 1026.3
20260510155915 47 133 2.0 6.0 0.00 0.06 0.06 84 1025.9
20260510155414 47 150 3.0 6.0 0.00 0.06 0.06 85 1026.0
20260510154915 47 174 2.0 6.0 0.00 0.06 0.06 85 1025.9
20260510154509 46 188 1.0 7.0 0.00 0.06 0.06 84 1026.5
20260510154415 47 136 2.0 7.0 0.00 0.06 0.06 85 1025.9
20260510153910 47 164 2.0 7.0 0.00 0.06 0.06 86 1026.0
20260510153409 47 155 1.0 5.0 0.00 0.06 0.06 86 1025.9
20260510153018 46 192 0.0 5.0 0.00 0.06 0.06 87 1026.5
20260510152909 46 193 2.0 4.0 0.00 0.06 0.06 88 1026.0
20260510151909 46 122 1.0 4.0 0.00 0.06 0.06 89 1025.9
20260510151518 45 172 0.0 6.0 0.00 0.06 0.06 90 1026.3
20260510151411 46 172 1.0 5.0 0.00 0.06 0.06 90 1025.9
20260510150910 45 173 2.0 5.0 0.00 0.06 0.06 90 1025.9
20260510150410 45 120 2.0 4.0 0.00 0.06 0.06 91 1025.8
20260510150023 45 161 2.0 5.0 0.00 0.06 0.06 90 1026.4
20260510145911 45 169 1.0 4.0 0.00 0.06 0.06 90 1026.0
20260510145411 45 153 1.0 3.0 0.00 0.06 0.06 92 1025.9
20260510144910 45 174 0.0 3.0 0.00 0.06 0.06 92 1025.9
20260510144530 44 165 0.0 2.0 0.00 0.06 0.06 91 1026.4
20260510144409 45 148 0.0 1.0 0.00 0.06 0.06 92 1026.0
20260510143911 45 94 0.0 0.0 0.00 0.06 0.06 92 1026.0
20260510143410 45 77 0.0 1.0 0.00 0.06 0.06 92 1025.9
20260510143011 44 82 0.0 1.0 0.00 0.06 0.06 92 1026.5
20260510142910 44 77 0.0 1.0 0.00 0.06 0.06 92 1025.9
20260510142411 44 77 0.0 0.0 0.00 0.06 0.06 92 1025.9
20260510141912 44 77 0.0 0.0 0.00 0.06 0.06 92 1025.8
20260510141518 44 82 0.0 0.0 0.00 0.06 0.06 92 1026.2
20260510141410 44 77 0.0 0.0 0.00 0.06 0.06 93 1025.7
20260510140911 44 77 0.0 1.0 0.00 0.06 0.06 92 1025.7
20260510140410 44 77 0.0 1.0 0.00 0.06 0.06 92 1025.6
20260510140022 43 82 0.0 1.0 0.00 0.06 0.06 92 1026.1
20260510135911 44 77 0.0 1.0 0.00 0.06 0.06 93 1025.7
20260510135411 44 77 0.0 0.0 0.00 0.06 0.06 93 1025.6
20260510134911 44 77 0.0 2.0 0.00 0.06 0.06 93 1025.7
20260510134525 43 82 0.0 2.0 0.00 0.06 0.06 92 1026.1
20260510134409 44 77 1.0 3.0 0.00 0.06 0.06 93 1025.7
20260510133910 43 77 0.0 4.0 0.00 0.06 0.06 92 1025.8
20260510133407 43 78 0.0 4.0 0.00 0.06 0.06 93 1025.7
20260510133037 43 259 0.0 1.0 0.00 0.06 0.06 93 1026.0
20260510132908 43 262 0.0 1.0 0.00 0.06 0.06 93 1025.6
20260510132402 43 262 0.0 0.0 0.00 0.06 0.06 93 1025.4
20260510131856 43 262 0.0 0.0 0.00 0.06 0.06 93 1025.4
20260510131515 43 259 0.0 0.0 0.00 0.06 0.06 93 1025.8
20260510131349 43 262 0.0 0.0 0.00 0.06 0.06 93 1025.4
20260510130844 43 262 0.0 0.0 0.00 0.06 0.06 94 1025.3
20260510130339 43 262 0.0 0.0 0.00 0.06 0.06 94 1025.2
20260510130019 42 259 0.0 0.0 0.00 0.06 0.06 93 1025.6
20260510125839 42 262 0.0 0.0 0.00 0.06 0.06 94 1025.2
20260510125336 42 262 0.0 0.0 0.00 0.06 0.06 93 1024.9
20260510124833 42 262 0.0 0.0 0.00 0.06 0.06 94 1024.8
20260510124522 42 259 0.0 0.0 0.00 0.06 0.06 93 1025.2
20260510124335 42 262 0.0 0.0 0.00 0.06 0.06 93 1024.8
20260510123831 42 262 0.0 0.0 0.00 0.06 0.06 93 1024.8
20260510123330 42 261 0.0 0.0 0.00 0.06 0.06 93 1024.8
20260510123027 41 258 0.0 0.0 0.00 0.06 0.06 92 1025.0
20260510122831 42 261 0.0 0.0 0.00 0.06 0.06 93 1024.7
20260510121831 42 261 0.0 0.0 0.00 0.06 0.06 92 1024.6
20260510121528 41 258 0.0 0.0 0.00 0.06 0.06 91 1025.0
20260510121330 42 261 0.0 0.0 0.00 0.06 0.06 92 1024.5
20260510120830 42 261 0.0 0.0 0.00 0.06 0.06 92 1024.5
20260510120022 42 258 0.0 1.0 0.00 0.06 0.06 91 1024.7
20260510115831 42 261 0.0 1.0 0.00 0.06 0.06 92 1024.2
20260510115330 42 212 0.0 1.0 0.00 0.06 0.06 92 1024.2
20260510114831 42 212 0.0 0.0 0.00 0.06 0.06 92 1024.2
20260510114523 42 206 0.0 3.0 0.00 0.06 0.06 91 1024.7
20260510113828 42 200 1.0 3.0 0.00 0.06 0.06 92 1024.3
20260510113329 43 195 1.0 4.0 0.00 0.06 0.06 91 1024.2
20260510113024 42 171 1.0 5.0 0.00 0.06 0.06 91 1024.5
20260510111811 43 110 0.0 3.0 0.01 0.06 0.06 91 1024.3
20260510111526 42 86 0.0 2.0 0.01 0.06 0.06 91 1024.6
20260510111306 43 82 0.0 2.0 0.01 0.06 0.06 91 1024.3
20260510110800 43 352 0.0 0.0 0.01 0.06 0.06 91 1024.3
20260510110253 43 352 0.0 0.0 0.01 0.06 0.06 91 1024.5
20260510110026 42 345 0.0 0.0 0.01 0.06 0.06 91 1024.8
20260510105241 43 352 0.0 0.0 0.01 0.06 0.06 91 1024.5
20260510104735 43 352 0.0 0.0 0.01 0.06 0.06 91 1024.5
20260510104516 43 345 0.0 0.0 0.01 0.06 0.06 91 1024.7
20260510103724 43 352 0.0 0.0 0.01 0.06 0.06 91 1024.5
20260510103217 43 352 0.0 0.0 0.01 0.06 0.06 91 1024.5
20260510103021 42 345 0.0 0.0 0.01 0.06 0.06 91 1024.8
20260510102206 43 352 0.0 0.0 0.01 0.06 0.06 91 1024.5
20260510101700 43 352 0.0 0.0 0.01 0.05 0.05 91 1024.3
20260510101526 42 345 0.0 0.0 0.01 0.05 0.05 90 1024.7
20260510101153 43 352 0.0 0.0 0.01 0.05 0.05 91 1024.3
20260510100647 43 352 0.0 0.0 0.02 0.05 0.05 90 1024.1
20260510100141 43 352 0.0 0.0 0.02 0.05 0.05 90 1024.2
20260510100010 42 345 0.0 0.0 0.02 0.05 0.05 89 1024.6
20260510095636 43 352 0.0 0.0 0.03 0.05 0.05 90 1024.3
20260510095130 43 352 0.0 0.0 0.04 0.05 0.05 90 1024.3
20260510094623 43 352 0.0 0.0 0.04 0.05 0.05 90 1024.2
20260510094515 43 345 0.0 0.0 0.04 0.05 0.05 89 1024.6
20260510094117 43 352 0.0 0.0 0.04 0.05 0.05 90 1024.2
20260510093611 43 352 0.0 0.0 0.04 0.05 0.05 90 1024.0
20260510093105 43 352 0.0 1.0 0.04 0.05 0.05 90 1024.2
20260510093020 43 345 0.0 2.0 0.04 0.05 0.05 89 1024.6
20260510092559 43 352 0.0 2.0 0.04 0.05 0.05 89 1024.1
20260510092053 43 309 0.0 1.0 0.04 0.05 0.05 89 1024.1
20260510091506 43 341 0.0 3.0 0.03 0.04 0.04 89 1024.5
20260510091041 43 272 1.0 5.0 0.03 0.04 0.04 89 1024.0
20260510090536 44 335 1.0 6.0 0.02 0.03 0.03 88 1024.1
20260510090029 44 338 2.0 6.0 0.02 0.03 0.03 88 1024.0
20260510090007 43 333 1.0 6.0 0.02 0.03 0.03 88 1024.4
20260510085017 44 311 1.0 4.0 0.00 0.01 0.01 87 1023.7
20260510084511 44 330 2.0 5.0 0.00 0.01 0.01 87 1023.7
20260510084005 44 286 2.0 6.0 0.00 0.01 0.01 87 1023.7
20260510083459 44 298 2.0 6.0 0.00 0.01 0.01 87 1023.2
20260510083018 43 319 1.0 9.0 0.00 0.01 0.01 87 1023.9
20260510082953 44 340 2.0 8.0 0.00 0.01 0.01 87 1023.5
20260510082448 44 349 2.0 8.0 0.00 0.01 0.01 87 1023.4
20260510081941 44 322 2.0 6.0 0.00 0.01 0.01 87 1023.6
20260510081519 44 326 2.0 6.0 0.00 0.01 0.01 86 1024.0
20260510081435 44 8 1.0 6.0 0.00 0.01 0.01 86 1023.6
20260510080930 44 354 1.0 7.0 0.00 0.01 0.01 86 1023.6
20260510080423 44 334 2.0 7.0 0.00 0.01 0.01 86 1023.7
20260510080025 44 325 2.0 8.0 0.00 0.01 0.01 86 1024.1
20260510075917 44 6 1.0 7.0 0.00 0.01 0.01 87 1023.6
20260510075412 44 1 1.0 6.0 0.00 0.01 0.01 87 1023.6
20260510074906 44 330 2.0 6.0 0.00 0.01 0.01 86 1023.6
20260510074506 44 23 3.0 7.0 0.00 0.01 0.01 85 1024.2
20260510073853 44 340 2.0 8.0 0.00 0.01 0.01 86 1023.7
20260510073014 44 322 1.0 8.0 0.00 0.01 0.01 85 1024.1
20260510072842 44 339 2.0 7.0 0.00 0.01 0.01 86 1023.6
20260510072335 45 337 2.0 7.0 0.01 0.01 0.01 86 1023.5
20260510071830 45 326 1.0 7.0 0.01 0.01 0.01 86 1023.6
20260510071520 44 290 1.0 8.0 0.01 0.01 0.01 86 1023.9
20260510071323 44 44 2.0 8.0 0.01 0.01 0.01 86 1023.5
20260510070818 44 1 1.0 8.0 0.01 0.01 0.01 86 1023.4
20260510070312 44 1 2.0 7.0 0.01 0.01 0.01 87 1023.4
20260510070021 44 329 1.0 8.0 0.01 0.01 0.01 86 1023.8
20260510065805 44 328 2.0 7.0 0.01 0.01 0.01 87 1023.2
20260510064754 44 347 2.0 13.0 0.01 0.01 0.01 87 1023.2
20260510064532 44 9 0.0 14.0 0.01 0.01 0.01 86 1023.7
20260510064247 44 292 3.0 13.0 0.01 0.01 0.01 87 1023.2
20260510063741 44 335 3.0 13.0 0.01 0.01 0.01 87 1023.2
20260510063236 44 20 4.0 15.0 0.01 0.01 0.01 87 1023.0
20260510063035 44 281 4.0 16.0 0.01 0.01 0.01 88 1023.5
20260510062729 44 281 4.0 15.0 0.01 0.01 0.01 88 1022.7
20260510062224 44 350 4.0 13.0 0.00 0.00 0.00 87 1022.3
20260510061717 44 16 3.0 9.0 0.00 0.00 0.00 86 1022.9
20260510061526 44 360 2.0 12.0 0.00 0.00 0.00 85 1023.5
20260510061212 45 319 3.0 15.0 0.00 0.00 0.00 85 1022.9
20260510060159 46 359 2.0 12.0 0.00 0.00 0.00 82 1023.5
20260510060024 45 350 3.0 15.0 0.00 0.00 0.00 80 1023.8
20260510055652 46 346 3.0 14.0 0.00 0.00 0.00 80 1023.4
20260510055146 46 346 4.0 16.0 0.00 0.00 0.00 80 1023.4
20260510054646 46 28 5.0 16.0 0.00 0.00 0.00 80 1023.1
20260510054526 45 5 4.0 17.0 0.00 0.00 0.00 79 1023.5
20260510054146 46 18 5.0 14.0 0.00 0.00 0.00 79 1022.7
20260510053646 46 331 5.0 14.0 0.00 0.00 0.00 79 1022.7
20260510053146 46 45 4.0 14.0 0.00 0.00 0.00 79 1022.9
20260510053025 45 323 6.0 14.0 0.00 0.00 0.00 79 1023.4
20260510051645 46 314 3.0 13.0 0.00 0.00 0.00 79 1022.6
20260510051532 46 344 4.0 14.0 0.00 0.00 0.00 78 1023.1
20260510051144 46 10 4.0 15.0 0.00 0.00 0.00 79 1022.9
20260510050644 46 333 4.0 15.0 0.00 0.00 0.00 78 1022.7
20260510050143 46 304 4.0 18.0 0.00 0.00 0.00 78 1022.6
20260510050030 46 257 4.0 19.0 0.00 0.00 0.00 77 1023.0
20260510045642 47 23 4.0 18.0 0.00 0.00 0.00 78 1022.5
20260510045142 47 281 4.0 14.0 0.00 0.00 0.00 77 1022.5
20260510044528 46 313 1.0 19.0 0.00 0.00 0.00 76 1023.0
20260510044142 47 288 7.0 23.0 0.00 0.00 0.00 76 1022.3
20260510043641 47 6 8.0 23.0 0.00 0.00 0.00 75 1021.9
20260510043028 47 297 9.0 27.0 0.00 0.00 0.00 74 1022.6
20260510042640 47 348 7.0 25.0 0.00 0.00 0.00 74 1022.0
20260510041640 47 269 7.0 27.0 0.00 0.00 0.00 73 1021.7
20260510041528 47 349 7.0 28.0 0.00 0.00 0.00 72 1022.2
20260510041139 48 354 7.0 27.0 0.00 0.00 0.00 72 1021.7
20260510040640 48 321 7.0 25.0 0.00 0.00 0.00 72 1021.8
20260510040140 48 53 7.0 25.0 0.00 0.00 0.00 71 1021.5
20260510040005 48 314 9.0 26.0 0.00 0.00 0.00 71 1022.1
20260510035140 48 342 7.0 24.0 0.00 0.00 0.00 70 1021.4
20260510034641 49 1 6.0 19.0 0.00 0.00 0.00 70 1021.2
20260510034503 48 297 6.0 24.0 0.00 0.00 0.00 70 1021.7
20260510034140 49 305 7.0 23.0 0.00 0.00 0.00 70 1021.0
20260510033639 49 311 7.0 23.0 0.00 0.00 0.00 69 1020.8
20260510033138 49 338 7.0 21.0 0.00 0.00 0.00 69 1020.4
20260510033003 49 292 4.0 23.0 0.00 0.00 0.00 68 1020.8
20260510032639 50 356 7.0 22.0 0.00 0.00 0.00 68 1020.2
20260510032141 51 331 7.0 22.0 0.00 0.00 0.00 66 1020.3
20260510031507 51 309 7.0 20.0 0.00 0.00 0.00 61 1020.4
20260510031134 52 348 7.0 19.0 0.00 0.00 0.00 59 1019.8
20260510030628 53 321 7.0 19.0 0.00 0.00 0.00 56 1019.7
20260510030123 54 324 7.0 21.0 0.00 0.00 0.00 54 1019.3
20260510030010 54 27 8.0 22.0 0.00 0.00 0.00 53 1019.8
20260510025616 55 359 8.0 21.0 0.00 0.00 0.00 51 1019.0
20260510025110 56 28 8.0 23.0 0.00 0.00 0.00 49 1018.8
20260510024604 57 347 7.0 23.0 0.00 0.00 0.00 47 1018.5
20260510024504 57 273 8.0 24.0 0.00 0.00 0.00 46 1018.9
20260510024059 59 328 5.0 21.0 0.00 0.00 0.00 44 1018.1
20260510023048 59 330 1.0 2.0 0.00 0.00 0.00 37 1017.1
20260510023004 58 326 0.0 2.0 0.00 0.00 0.00 36 1017.7
20260510022541 59 325 0.0 2.0 0.00 0.00 0.00 37 1016.8
20260510021528 60 282 1.0 3.0 0.00 0.00 0.00 38 1016.4
20260510021514 59 279 0.0 3.0 0.00 0.00 0.00 38 1017.1
20260510021023 60 277 1.0 3.0 0.00 0.00 0.00 35 1016.4
20260510020517 60 307 0.0 2.0 0.00 0.00 0.00 35 1016.3
20260510020007 60 340 0.0 1.0 0.00 0.00 0.00 34 1016.6
20260510015505 61 346 0.0 2.0 0.00 0.00 0.00 33 1015.9
20260510014958 61 346 0.0 2.0 0.00 0.00 0.00 34 1016.0
20260510014508 61 344 0.0 2.0 0.00 0.00 0.00 33 1016.4
20260510014453 61 352 0.0 2.0 0.00 0.00 0.00 34 1015.9
20260510013946 61 89 0.0 2.0 0.00 0.00 0.00 33 1015.8
20260510013440 61 89 1.0 3.0 0.00 0.00 0.00 32 1015.8
20260510013008 61 90 0.0 3.0 0.00 0.00 0.00 32 1016.1
20260510012934 61 86 1.0 3.0 0.00 0.00 0.00 32 1015.7
20260510012428 61 70 1.0 2.0 0.00 0.00 0.00 33 1015.5
20260510011923 61 56 1.0 4.0 0.00 0.00 0.00 33 1015.7
20260510011506 61 61 0.0 4.0 0.00 0.00 0.00 32 1016.0
20260510011416 62 56 1.0 4.0 0.00 0.00 0.00 33 1015.7
20260510010910 62 63 1.0 4.0 0.00 0.00 0.00 32 1015.7
20260510010404 62 65 1.0 5.0 0.00 0.00 0.00 31 1015.7
20260510010007 62 24 1.0 6.0 0.00 0.00 0.00 31 1016.1
20260510005858 63 45 0.0 6.0 0.00 0.00 0.00 31 1015.8
20260510004505 63 60 0.0 5.0 0.00 0.00 0.00 30 1015.9
20260510004340 63 44 2.0 5.0 0.00 0.00 0.00 31 1015.4
20260510003328 65 39 1.0 3.0 0.00 0.00 0.00 28 1015.2
20260510003020 64 40 0.0 3.0 0.00 0.00 0.00 26 1015.5
20260510002823 65 20 0.0 2.0 0.00 0.00 0.00 27 1015.1
20260510002316 65 336 1.0 3.0 0.00 0.00 0.00 26 1015.1
20260510001810 65 347 1.0 5.0 0.00 0.00 0.00 25 1014.9
20260510001507 65 339 0.0 5.0 0.00 0.00 0.00 24 1015.4
20260510001305 66 357 1.0 5.0 0.00 0.00 0.00 25 1014.9
20260510000759 66 359 1.0 4.0 0.00 0.00 0.00 25 1014.9
20260510000252 66 47 2.0 5.0 0.00 0.00 0.00 24 1014.8
20260510000010 65 285 1.0 7.0 0.00 0.00 0.00 22 1015.3
20260509235240 66 340 3.0 9.0 0.00 0.00 0.00 21 1014.6
20260509234734 65 260 4.0 9.0 0.00 0.00 0.00 22 1014.6
20260509234510 64 333 4.0 15.0 0.00 0.00 0.00 21 1015.2
20260509234228 65 351 4.0 14.0 0.00 0.00 0.00 21 1014.7
20260509233722 64 258 3.0 14.0 0.00 0.00 0.00 25 1015.1
20260509233216 64 42 4.0 8.0 0.00 0.00 0.00 29 1015.2
20260509233009 63 53 3.0 9.0 0.00 0.00 0.00 28 1015.6
20260509232710 64 56 4.0 8.0 0.00 0.00 0.00 28 1015.1
20260509231658 64 47 3.0 8.0 0.00 0.00 0.00 28 1014.9
20260509231510 63 61 3.0 9.0 0.00 0.00 0.00 28 1015.4
20260509230647 64 75 4.0 12.0 0.00 0.00 0.00 28 1015.1
20260509230140 64 32 6.0 13.0 0.00 0.00 0.00 30 1015.2
20260509230010 64 47 3.0 14.0 0.00 0.00 0.00 30 1015.6
20260509225634 64 90 7.0 13.0 0.00 0.00 0.00 30 1014.8
20260509225128 65 74 6.0 11.0 0.00 0.00 0.00 30 1014.8
20260509224623 65 43 7.0 12.0 0.00 0.00 0.00 28 1014.7
20260509224508 65 61 7.0 13.0 0.00 0.00 0.00 28 1015.3
20260509223610 66 84 7.0 13.0 0.00 0.00 0.00 28 1014.8
20260509223009 65 57 8.0 14.0 0.00 0.00 0.00 27 1015.0
20260509222558 66 72 6.0 10.0 0.00 0.00 0.00 28 1014.6
20260509222052 66 70 4.0 9.0 0.00 0.00 0.00 26 1014.3
20260509221546 66 41 2.0 10.0 0.00 0.00 0.00 29 1014.8
20260509221511 65 41 1.0 12.0 0.00 0.00 0.00 25 1015.4
20260509221040 66 29 4.0 11.0 0.00 0.00 0.00 25 1014.9
20260509220535 67 58 3.0 11.0 0.00 0.00 0.00 25 1014.4
20260509220022 67 72 2.0 6.0 0.00 0.00 0.00 22 1014.8
20260509215522 67 67 5.0 9.0 0.00 0.00 0.00 23 1014.0
20260509215017 68 60 4.0 10.0 0.00 0.00 0.00 22 1014.1
20260509214524 67 27 4.0 11.0 0.00 0.00 0.00 22 1014.7
20260509214004 68 338 2.0 7.0 0.00 0.00 0.00 21 1014.4
20260509213458 69 75 3.0 8.0 0.00 0.00 0.00 21 1014.4
20260509213026 68 347 3.0 9.0 0.00 0.00 0.00 19 1014.6
20260509212953 69 357 3.0 8.0 0.00 0.00 0.00 20 1014.2
20260509212447 69 53 2.0 7.0 0.00 0.00 0.00 20 1014.2
20260509211940 70 225 1.0 2.0 0.00 0.00 0.00 20 1014.2
20260509211527 69 57 0.0 3.0 0.00 0.00 0.00 18 1014.6
20260509211434 70 52 1.0 3.0 0.00 0.00 0.00 19 1014.2
20260509210929 70 21 1.0 3.0 0.00 0.00 0.00 19 1014.1
20260509210422 70 298 1.0 5.0 0.00 0.00 0.00 18 1014.2
20260509210030 70 66 1.0 5.0 0.00 0.00 0.00 19 1014.6
20260509205917 71 353 2.0 5.0 0.00 0.00 0.00 20 1014.2
20260509205410 71 354 2.0 7.0 0.00 0.00 0.00 19 1014.2
20260509204905 71 44 2.0 7.0 0.00 0.00 0.00 21 1014.2
20260509204524 71 281 3.0 8.0 0.00 0.00 0.00 19 1014.8
20260509204359 71 306 2.0 7.0 0.00 0.00 0.00 20 1014.3
20260509203853 71 344 2.0 8.0 0.00 0.00 0.00 19 1014.4
20260509203346 71 25 2.0 8.0 0.00 0.00 0.00 20 1014.3
20260509203026 71 15 2.0 8.0 0.00 0.00 0.00 19 1014.9
20260509202846 72 50 3.0 7.0 0.00 0.00 0.00 19 1014.3
20260509202342 71 297 3.0 9.0 0.00 0.00 0.00 20 1014.3
20260509201841 72 15 3.0 9.0 0.00 0.00 0.00 20 1014.4
20260509201528 71 355 3.0 10.0 0.00 0.00 0.00 20 1015.0
20260509201340 71 51 2.0 5.0 0.00 0.00 0.00 21 1014.4
20260509200841 70 328 2.0 7.0 0.00 0.00 0.00 22 1014.6
20260509200339 70 13 2.0 7.0 0.00 0.00 0.00 20 1014.8
20260509200029 70 360 1.0 7.0 0.00 0.00 0.00 21 1015.2
20260509195838 70 1 2.0 6.0 0.00 0.00 0.00 21 1014.8
20260509195338 71 357 2.0 8.0 0.00 0.00 0.00 19 1014.7
20260509194838 72 156 2.0 8.0 0.00 0.00 0.00 20 1014.8
20260509194523 72 11 3.0 7.0 0.00 0.00 0.00 19 1015.1
20260509193838 72 94 2.0 8.0 0.00 0.00 0.00 19 1014.7
20260509193338 71 335 1.0 8.0 0.00 0.00 0.00 23 1014.7
20260509193028 70 341 0.0 5.0 0.00 0.00 0.00 18 1015.1
20260509192838 71 347 1.0 5.0 0.00 0.00 0.00 18 1014.8
20260509192339 71 75 2.0 5.0 0.00 0.00 0.00 21 1014.8
20260509191840 71 20 2.0 6.0 0.00 0.00 0.00 20 1014.8
20260509191528 70 345 2.0 8.0 0.00 0.00 0.00 18 1015.1
20260509190829 70 6 3.0 7.0 0.00 0.00 0.00 23 1014.8
20260509190013 69 271 1.0 6.0 0.00 0.00 0.00 22 1015.4
20260509185832 70 77 3.0 6.0 0.00 0.00 0.00 21 1014.9
20260509185330 70 36 3.0 6.0 0.00 0.00 0.00 19 1014.9
20260509184505 70 259 4.0 10.0 0.00 0.00 0.00 18 1015.5
20260509183829 70 344 2.0 7.0 0.00 0.00 0.00 20 1015.1
20260509183330 69 282 2.0 5.0 0.00 0.00 0.00 21 1015.1
20260509183004 69 69 3.0 9.0 0.00 0.00 0.00 18 1015.7
20260509182831 70 56 3.0 8.0 0.00 0.00 0.00 18 1015.2
20260509182330 71 7 3.0 8.0 0.00 0.00 0.00 19 1015.2
20260509181826 72 53 2.0 8.0 0.00 0.00 0.00 20 1015.2
20260509181508 71 319 2.0 7.0 0.00 0.00 0.00 20 1015.8
20260509181326 72 41 2.0 6.0 0.00 0.00 0.00 23 1015.1
20260509180825 71 84 3.0 7.0 0.00 0.00 0.00 20 1015.2
20260509180326 71 236 3.0 10.0 0.00 0.00 0.00 18 1015.3
20260509180013 71 327 2.0 11.0 0.00 0.00 0.00 17 1015.8
20260509175327 71 310 4.0 9.0 0.00 0.00 0.00 18 1015.4